Regional Weather Roundup
Issued by NWS

Home | Current Version | Previous Version | Graphics & Text | Print | Product List | Glossary On
Versions: 1 2 3 4 5 6 7 8 9 10 11 12 13 14 15 16 17 18 19 20 21 22 23 24 25 26 27 28 29 30 31 32 33 34 35 36 37 38 39 40 41 42 43 44 45 46 47 48 49 50
000
ASUS43 KBIS 301510
RWRND

NORTH DAKOTA REGIONAL WEATHER ROUNDUP
NATIONAL WEATHER SERVICE BISMARCK ND
1000 AM CDT SUN APR 30 2017

NOTE: "FAIR" INDICATES FEW OR NO CLOUDS BELOW 12,000 FEET WITH NO
SIGNIFICANT WEATHER AND/OR OBSTRUCTIONS TO VISIBILITY.


NDZ001>003-009>011-017-301600-
NORTHWEST NORTH DAKOTA

CITY           SKY/WX    TMP DP  RH WIND       PRES   REMARKS
WILLISTON      FAIR      51  28  41 S8        30.01F
MINOT          FAIR      58  24  27 S9        30.01F
MINOT AFB      SUNNY     60  25  26 SW12      30.00F
$$

NDZ018>021-031>035-040>046-301600-
SOUTHWEST NORTH DAKOTA

CITY           SKY/WX    TMP DP  RH WIND       PRES   REMARKS
BISMARCK       FAIR      50  29  44 CALM      30.07F
DICKINSON      FAIR      52  24  33 VRB3      30.01F
GARRISON         N/A     49  24  37 S5        30.03F
HETTINGER ARPT SUNNY     52  25  35 VRB3      30.04F
$$

NDZ004>008-012>016-024-026-027-054-301600-
NORTHEAST NORTH DAKOTA

CITY           SKY/WX    TMP DP  RH WIND       PRES   REMARKS
GRAND FORKS    MOSUNNY   51  32  48 S8        30.12F
GRND FRKS AFB  MOSUNNY   52  30  42 S5        30.11F
DEVILS LAKE    FAIR      52  30  43 S6        30.09F
$$

NDZ022-023-025-028>030-036>039-047>053-301600-
SOUTHEAST NORTH DAKOTA

CITY           SKY/WX    TMP DP  RH WIND       PRES   REMARKS
FARGO          CLOUDY    51  21  30 E9        30.11F
JAMESTOWN      FAIR      52  28  39 N7        30.07F
$$





USA.gov is the U.S. government's official web portal to all federal, state and local government web resources and services.